CAPE
1210 587 512 473 721 734 624 598 575 607 724 849 980 823 726 804 794 764 697 503 343 141 114 82 71 58 28 0 0 86 849 465
1421 952 537 464 524 336 323 353 351 402 479 535 566 494 528 646 650 644 571 387 248 173 71 32 32 4 0 0 20 106 977 692
1556 1270 1010 759 621 395 95 159 203 240 332 346 265 34 213 471 180 481 586 353 223 166 81 10 0 0 0 7 43 903 941 824
1378 1490 1382 1212 794 702 289 49 116 156 74 199 102 13 49 0 66 273 427 317 223 145 76 2 1 477 464 50 912 1026 1095 847
1131 1452 1529 1493 1107 859 492 105 17 70 114 159 79 52 99 48 61 37 91 91 18 2 0 0 239 800 914 1073 1093 1244 1054 670
1004 1210 1556 1524 1143 801 565 242 72 138 187 364 232 237 96 11 0 0 52 85 109 28 6 32 721 928 1082 1232 1246 983 750 247
988 1123 1378 1461 1403 872 671 369 75 138 190 353 233 196 130 80 56 24 52 287 544 369 198 353 752 848 1177 1294 1193 659 143 0
1020 1086 1252 1326 1371 1200 770 513 123 131 138 234 437 290 256 116 132 205 260 468 619 571 493 562 636 902 1292 1139 812 206 9 0
1080 1179 1117 1307 1286 1288 1001 560 313 113 115 286 457 503 427 374 190 313 330 560 869 943 781 710 810 1137 1243 908 210 0 0 0
802 919 1058 1212 1175 1213 988 671 448 254 132 149 451 623 531 606 328 283 486 814 1098 1166 1076 839 1201 1126 755 230 0 0 0 0
1249 1004 1128 1255 1204 1215 1178 991 705 462 289 193 244 545 626 626 478 429 433 857 1232 1225 1096 1154 1113 791 301 13 0 0 0 0
1704 1653 1288 1170 1377 1339 1130 1014 913 727 514 372 378 395 560 677 495 575 654 723 1141 1398 1255 1137 1135 591 3 0 0 0 0 0
1281 1792 1880 1461 1264 1305 1269 1115 949 871 704 662 514 467 484 648 539 555 822 830 814 1663 1732 1449 418 39 0 0 0 0 0 0
251 1217 1567 1849 1528 1410 1423 1302 1131 1040 925 1108 962 713 964 775 864 662 752 856 1014 1671 1897 1326 548 0 0 0 0 0 0 0
0 99 960 1553 1812 1587 1468 1307 1427 1272 1307 1308 1257 839 1187 1267 1186 1128 1437 1490 1404 1994 1983 1159 599 2 0 0 0 0 0 0
0 0 118 1005 1753 1897 1719 1599 1457 1996 1789 1528 1460 1377 1237 1332 1443 1463 1629 1604 1788 1978 2012 1262 680 5 0 0 0 0 0 0
0 0 0 54 1263 1917 1862 1872 1926 1964 1903 2157 2506 1883 1529 1086 1584 1665 1641 1762 1908 2185 1356 1499 866 0 0 0 0 0 0 0
0 0 0 0 25 895 1791 1806 1941 1999 2170 2319 2454 2444 2271 1973 1597 1775 1705 1673 1895 2046 2181 555 0 6 0 0 0 0 0 0
0 0 0 0 0 2 420 1265 1656 1763 2091 2393 2454 2670 2719 2141 1694 1913 1866 1852 1885 1959 1383 0 6 0 0 0 0 0 0 0
0 0 0 0 0 0 0 41 371 1558 1903 2287 2444 2586 2719 2597 1533 1128 1645 1951 1708 1571 289 31 1 1 0 0 0 0 0 0
CIN
-156 -288 -303 -299 -217 -241 -271 -270 -264 -229 -178 -134 -102 -115 -144 -124 -117 -115 -140 -185 -251 -392 -417 -459 -494 -523 -582 -123 -67 -461 -15 -52
-110 -173 -265 -271 -227 -311 -325 -321 -314 -296 -252 -212 -193 -188 -171 -150 -144 -140 -153 -204 -273 -339 -453 -526 -536 -588 -0 -0 -580 -452 -3 -13
-121 -121 -139 -164 -173 -225 -371 -334 -322 -308 -274 -268 -283 -255 -235 -169 -234 -183 -140 -204 -248 -296 -415 -557 -0 -0 -0 -251 -438 -5 -2 -2
-175 -131 -116 -115 -137 -140 -225 -277 -264 -252 -275 -242 -257 -292 -267 -0 -278 -238 -169 -191 -220 -260 -351 -476 -142 -88 -120 -203 -11 -0 -0 -0
-240 -149 -119 -109 -127 -144 -176 -239 -281 -246 -236 -225 -250 -247 -223 -274 -247 -311 -241 -275 -316 -58 -0 -37 -125 -12 -3 -0 -0 -0 -0 -2
-252 -206 -133 -117 -129 -174 -174 -217 -260 -226 -208 -182 -196 -191 -221 -243 -0 -0 -219 -184 -170 -229 -240 -205 -30 -3 -0 -0 -0 -0 -0 -60
-277 -233 -183 -142 -116 -164 -183 -210 -268 -241 -218 -192 -194 -195 -208 -211 -195 -185 -167 -94 -59 -92 -104 -72 -15 -2 -0 -0 -0 -1 -89 -0
-273 -280 -229 -187 -148 -148 -193 -199 -224 -249 -225 -210 -194 -188 -191 -203 -182 -152 -126 -71 -38 -39 -43 -28 -16 -0 -0 -0 -0 -44 -47 -0
-252 -282 -279 -229 -190 -152 -161 -193 -222 -255 -265 -229 -192 -183 -171 -175 -187 -138 -114 -63 -18 -3 -12 -8 -3 -0 -0 -0 -35 -3 -0 -0
-222 -270 -307 -287 -254 -180 -178 -184 -219 -241 -265 -285 -223 -177 -179 -149 -172 -162 -79 -23 -0 -0 -0 -0 -0 -0 -0 -19 -0 -0 -0 -0
-163 -248 -279 -289 -277 -235 -208 -202 -224 -235 -263 -290 -307 -232 -192 -155 -151 -141 -116 -26 -2 -0 -0 -0 -0 -0 -11 -37 -0 -0 -0 -0
-142 -161 -252 -248 -205 -207 -223 -230 -239 -242 -260 -278 -288 -286 -235 -194 -168 -127 -102 -57 -12 -4 -0 -0 -0 -0 -4 -0 -0 -0 -0 -0
-165 -154 -160 -192 -221 -216 -214 -237 -254 -274 -305 -298 -304 -290 -253 -202 -196 -153 -89 -68 -58 -0 -0 -0 -28 -24 -0 -0 -0 -0 -0 -0
-283 -228 -184 -145 -176 -198 -173 -163 -198 -219 -257 -248 -271 -292 -243 -245 -188 -167 -121 -70 -45 -1 -0 -6 -30 -0 -0 -0 -0 -0 -0 -0
-0 -198 -250 -165 -143 -147 -167 -185 -161 -197 -226 -243 -251 -297 -239 -242 -209 -167 -72 -53 -27 -0 -0 -9 -33 -45 -0 -0 -0 -0 -0 -0
-0 -0 -393 -205 -105 -96 -122 -140 -182 -173 -181 -192 -200 -227 -256 -221 -213 -179 -124 -80 -43 -8 -0 -14 -13 -59 -0 -0 -0 -0 -0 -0
-0 -0 -0 -391 -136 -53 -54 -78 -105 -131 -117 -117 -92 -159 -215 -262 -195 -165 -142 -93 -57 -11 -43 -26 -16 -6 -0 -0 -0 -0 -0 -0
-0 -0 -0 -0 -301 -155 -47 -44 -48 -56 -57 -62 -78 -89 -114 -178 -219 -174 -152 -117 -80 -30 -4 -157 -0 -44 -0 -0 -0 -0 -0 -0
-0 -0 -0 -0 -0 -60 -246 -93 -49 -60 -49 -35 -54 -61 -82 -167 -202 -166 -149 -108 -69 -39 -66 -0 -0 -0 -0 -0 -0 -0 -0 -0
-0 -0 -0 -0 -0 -0 -0 -452 -255 -58 -49 -32 -38 -33 -47 -87 -230 -278 -178 -81 -63 -66 -301 -380 -0 -0 -0 -0 -0 -0 -0 -0
Wind_Speed
15 17 16 11 11 13 14 14 14 12 11 10 10 9 9 9 8 8 8 8 8 8 7 6 5 5 4 4 3 7 8 4
14 15 16 16 14 9 12 13 13 13 12 11 10 9 8 9 9 9 9 8 8 8 7 7 6 6 5 4 5 10 7 5
14 15 15 15 14 12 9 9 11 10 11 11 10 11 12 13 11 12 9 9 8 8 7 7 7 6 6 6 9 5 4 3
14 16 15 15 12 13 13 12 11 12 12 13 11 11 11 10 10 10 9 8 8 7 7 7 9 9 8 8 9 2 5 2
17 16 15 15 13 10 8 8 9 9 13 12 12 8 8 8 7 8 9 10 8 10 9 9 11 6 6 5 4 6 3 3
16 17 15 15 11 10 11 10 10 9 11 14 10 7 9 9 7 9 9 8 9 9 7 9 8 8 6 6 7 6 4 2
17 17 16 14 15 11 11 11 11 12 12 14 11 10 9 9 8 8 8 8 8 8 8 8 9 8 8 8 7 5 4 3
17 18 17 16 15 15 11 11 12 11 11 12 16 11 10 10 10 10 9 8 8 8 8 8 8 8 8 8 6 6 6 3
18 18 18 17 18 16 13 12 12 12 12 14 15 15 13 12 10 10 10 9 10 8 8 8 8 8 8 6 6 6 5 5
17 16 18 19 17 15 12 13 12 12 12 12 16 16 16 14 11 11 11 10 9 10 9 9 9 7 7 7 6 5 6 5
16 18 19 20 18 15 15 15 13 12 12 13 16 17 17 14 12 11 12 11 11 10 10 10 9 8 7 6 5 6 7 6
15 15 18 17 14 13 13 13 13 13 13 13 16 14 18 16 13 14 13 12 12 11 12 10 9 9 7 6 5 5 5 6
14 15 17 14 13 14 14 15 13 14 14 18 18 17 18 17 14 15 14 14 14 14 12 11 9 6 6 2 2 4 6 6
9 13 15 15 13 13 13 12 13 13 14 16 18 20 19 18 17 15 17 14 16 16 13 11 11 11 8 5 4 5 8 8
11 8 11 14 16 12 12 12 12 13 14 14 16 20 19 20 20 17 16 15 13 16 14 18 13 12 14 6 4 6 7 8
13 10 8 10 14 13 17 14 15 13 13 13 14 20 21 21 21 20 19 14 16 15 14 15 15 13 6 5 3 2 6 5
13 13 10 8 10 14 13 17 14 12 13 16 16 16 20 22 21 20 19 16 17 18 16 18 13 8 7 7 8 5 4 6
14 15 14 13 11 12 16 19 17 14 14 13 12 12 13 20 22 19 19 17 19 17 18 18 11 10 9 8 9 7 9 7
13 15 15 14 12 12 13 17 19 21 18 14 16 12 12 14 17 18 17 19 18 16 15 15 17 14 12 8 7 7 2 8
15 14 15 15 15 13 12 14 12 13 16 14 14 14 14 15 15 17 19 19 17 16 13 13 13 13 17 13 8 6 3 3
Wind_Direction
172 178 178 181 179 167 167 165 163 163 165 164 162 165 163 165 166 167 163 161 162 166 167 171 182 188 195 200 227 266 266 150
180 185 186 186 186 180 175 171 169 168 169 171 169 170 178 182 176 184 178 174 174 176 181 180 192 204 219 235 239 248 243 157
184 188 190 191 191 185 187 182 176 172 175 176 172 195 184 173 199 156 188 186 187 188 192 199 201 207 206 221 238 228 192 185
193 189 192 191 196 185 199 193 198 197 194 184 207 204 195 198 172 177 197 201 202 204 209 214 225 192 179 201 228 192 232 229
192 194 194 197 197 189 193 195 200 203 203 197 209 200 202 209 192 191 202 199 203 198 195 216 213 224 204 208 197 216 225 220
196 194 196 201 201 198 198 198 197 203 204 203 204 209 203 210 211 200 207 189 211 202 204 217 206 219 234 220 225 250 213 219
200 199 199 203 213 205 213 210 203 204 202 200 208 207 206 211 214 214 210 206 203 207 216 203 206 215 220 228 218 235 223 238
202 204 205 204 212 215 210 215 215 212 210 207 209 211 205 209 211 213 212 214 214 211 209 208 217 219 218 235 224 226 210 203
208 206 206 209 216 214 218 216 221 214 216 212 208 213 211 215 214 216 214 212 219 221 213 227 221 217 222 204 211 212 201 207
215 210 208 209 213 219 221 222 218 223 222 216 215 215 218 211 215 216 217 214 212 216 214 220 227 217 210 212 212 201 198 191
224 218 218 213 212 216 218 223 222 222 221 222 214 215 217 223 220 216 218 220 217 220 219 225 220 220 210 206 199 204 193 190
239 227 224 223 222 218 223 223 226 226 225 225 222 216 218 216 223 221 213 221 221 216 223 214 228 217 211 197 198 203 206 198
249 242 231 221 218 219 217 222 222 224 226 225 222 221 218 221 224 217 220 223 222 211 211 212 212 183 144 135 227 225 213 202
275 248 251 227 231 228 230 227 228 229 228 227 221 220 216 216 221 223 216 225 223 222 207 199 204 183 191 155 182 191 218 213
1 313 250 250 233 243 234 235 239 232 228 229 222 222 219 214 213 218 218 215 220 216 204 207 202 188 201 175 170 223 170 188
350 352 318 253 251 235 241 238 235 235 234 230 226 219 220 219 218 213 214 211 214 213 203 209 209 192 189 278 293 302 203 178
352 345 344 321 256 243 246 245 251 253 248 241 234 228 223 225 221 218 215 215 214 211 202 204 204 155 191 154 224 230 216 262
352 350 345 342 325 267 247 257 258 257 256 253 241 235 227 223 224 221 221 218 214 210 206 200 177 193 188 190 181 177 196 201
354 348 341 338 333 314 280 263 259 265 259 256 254 245 234 230 222 223 221 221 219 211 199 189 188 183 189 184 223 218 185 191
350 349 338 333 329 324 306 290 272 260 256 254 251 249 244 229 217 220 226 222 220 212 190 189 182 186 185 201 176 196 177 203